Location: ActonStarParty
(42.4766°N, 71.4538°W)
Time: 05:41:18
(UTC-04:00)

ISS - All Passes

Search period start: 26 May 2015 00:00
Search period end: 05 June 2015 00:00
Orbit: 399 x 404 km, 51.6° (Epoch: 26 May)

Date Brightness Start Highest point End Pass type
(mag) Time Alt. Az. Time Alt. Az. Time Alt. Az.
26 May - 00:06:03 10° SW 00:09:13 54° SE 00:12:25 10° ENE visible
26 May - 01:42:58 10° W 01:45:49 27° NNW 01:48:40 10° NE visible
26 May - 03:20:51 10° NW 03:23:01 16° N 03:25:10 10° NE visible
26 May - 04:57:23 10° NW 05:00:13 26° NNE 05:03:03 10° E daylight
26 May - 06:33:36 10° WNW 06:36:50 59° SW 06:40:03 10° SE daylight
26 May - 23:13:18 10° SSW 23:16:07 28° SE 23:18:58 10° ENE night (unlit)
27 May - 00:49:21 10° W 00:52:27 39° NNW 00:55:33 10° NE visible
27 May - 02:27:15 10° NW 02:29:30 17° N 02:31:46 10° NE visible
27 May - 04:04:15 10° NW 04:06:47 20° NNE 04:09:19 10° ENE visible
27 May - 05:40:21 10° NW 05:43:37 73° NNE 05:46:53 10° ESE daylight
27 May - 07:17:54 10° W 07:19:42 14° SW 07:21:23 10° SSW daylight
27 May - 22:21:11 10° SSE 22:23:03 15° SE 22:25:00 10° E night (unlit)
27 May - 23:55:55 10° WSW 23:59:08 67° NNW 00:02:24 10° NE visible
28 May - 01:33:32 10° WNW 01:36:01 20° NNW 01:38:30 10° NE visible
28 May - 03:11:01 10° NW 03:13:18 17° N 03:15:35 10° NE visible
28 May - 04:47:12 10° NW 04:50:20 42° NNE 04:53:28 10° E daylight
28 May - 06:23:51 10° WNW 06:26:38 26° SW 06:29:23 10° SSE daylight
28 May - 23:02:42 10° SW 23:05:54 64° SE 23:09:08 10° ENE visible
29 May - 00:39:47 10° WNW 00:42:34 25° NNW 00:45:20 10° NE visible
29 May - 02:17:37 10° NW 02:19:46 16° N 02:21:56 10° NE visible
29 May - 03:54:03 10° NW 03:56:57 28° NNE 03:59:51 10° E visible
29 May - 05:30:19 10° WNW 05:33:30 49° SW 05:36:40 10° SE daylight
29 May - 22:09:49 10° SSW 22:12:44 32° SE 22:15:42 10° ENE visible
29 May - 23:46:06 10° W 23:49:08 35° NNW 23:52:11 10° NE visible
30 May - 01:24:01 10° NW 01:26:14 17° N 01:28:26 10° NE visible
30 May - 03:00:53 10° NW 03:03:29 21° NNE 03:06:06 10° ENE visible
30 May - 04:37:00 10° NW 04:40:17 85° NE 04:43:33 10° ESE visible
30 May - 06:15:01 10° WSW 06:16:17 12° SW 06:17:26 10° SSW daylight
30 May - 21:17:27 10° S 21:19:37 17° SE 21:21:53 10° E visible
30 May - 22:52:34 10° WSW 22:55:46 58° NNW 22:59:00 10° NE visible
31 May - 00:30:16 10° WNW 00:32:42 19° N 00:35:06 10° NE visible
31 May - 02:07:39 10° NW 02:09:58 18° N 02:12:18 10° NE visible
31 May - 03:43:47 10° NW 03:46:58 47° NNE 03:50:08 10° ESE visible
31 May - 05:20:35 10° W 05:23:12 22° SW 05:25:47 10° S daylight
31 May - 21:59:15 10° SW 22:02:29 76° SE 22:05:44 10° ENE visible
31 May - 23:36:29 10° WNW 23:39:11 23° NNW 23:41:53 10° NE visible
01 Jun - 01:14:15 10° NW 01:16:25 16° N 01:18:35 10° NE visible
01 Jun - 02:50:37 10° NW 02:53:33 31° NNE 02:56:31 10° E visible
01 Jun - 04:26:56 10° WNW 04:30:03 42° SW 04:33:08 10° SSE visible
01 Jun - 21:06:14 10° SSW 21:09:15 38° SE 21:12:18 10° ENE visible
01 Jun - 22:42:44 10° W 22:45:42 32° NNW 22:48:41 10° NE visible
02 Jun - 00:20:40 10° NW 00:22:50 16° N 00:25:00 10° NE visible
02 Jun - 01:57:25 10° NW 02:00:05 22° NNE 02:02:45 10° ENE visible
02 Jun - 03:33:32 10° WNW 03:36:48 83° SW 03:40:04 10° SE visible
02 Jun - 20:13:40 10° S 20:16:05 20° SE 20:18:34 10° E daylight
02 Jun - 21:49:07 10° WSW 21:52:17 51° NNW 21:55:29 10° NE visible
02 Jun - 23:26:54 10° NW 23:29:15 18° N 23:31:36 10° NE visible
03 Jun - 01:04:09 10° NW 01:06:32 18° N 01:08:55 10° ENE visible
03 Jun - 02:40:16 10° NW 02:43:28 54° NNE 02:46:41 10° ESE visible
03 Jun - 04:17:14 10° W 04:19:39 19° SW 04:22:01 10° S visible
03 Jun - 19:22:25 10° SE 19:22:58 10° SE 19:23:38 10° ESE daylight
03 Jun - 20:55:42 10° SW 20:58:56 88° SSE 21:02:12 10° ENE visible
03 Jun - 22:33:04 10° WNW 22:35:42 22° NNW 22:38:19 10° NE visible
04 Jun - 00:10:46 10° NW 00:12:56 16° N 00:15:08 10° NE visible
04 Jun - 01:47:03 10° NW 01:50:03 33° NNE 01:53:04 10° E visible
04 Jun - 03:23:27 10° WNW 03:26:29 36° SW 03:29:29 10° SSE visible
04 Jun - 20:02:34 10° SSW 20:05:40 44° SE 20:08:47 10° ENE daylight
04 Jun - 21:39:16 10° W 21:42:10 29° NNW 21:45:05 10° NE visible
04 Jun - 23:17:10 10° NW 23:19:19 16° N 23:21:28 10° NE visible
